2022/12/14 00:00:00, 0.0, 3.0
2022/12/14 00:10:00, 0.0, 3.2
2022/12/14 00:20:00, 0.0, 3.3
2022/12/14 00:30:00, 0.0, 3.2
2022/12/14 00:40:00, 0.0, 3.1
2022/12/14 00:50:00, 0.0, 2.9
2022/12/14 01:00:00, 0.0, 3.0
2022/12/14 01:10:00, 0.0, 3.5
2022/12/14 01:20:00, 0.0, 3.7
2022/12/14 01:30:00, 0.0, 3.6
2022/12/14 01:40:00, 0.0, 3.3
2022/12/14 01:50:00, 0.0, 3.2
2022/12/14 02:00:00, 0.0, 3.4
2022/12/14 02:10:00, 0.0, 3.3
2022/12/14 02:20:00, 0.0, 3.0
2022/12/14 02:30:00, 0.0, 2.8
2022/12/14 02:40:00, 0.0, 2.7
2022/12/14 02:50:00, 0.0, 2.1
2022/12/14 03:00:00, 0.0, 2.4
2022/12/14 03:10:00, 0.0, 2.2
2022/12/14 03:20:00, 0.0, 1.7
2022/12/14 03:30:00, 0.0, 1.9
2022/12/14 03:40:00, 0.0, 2.0
2022/12/14 03:50:00, 0.0, 1.7
2022/12/14 04:00:00, 0.0, 1.8
2022/12/14 04:10:00, 0.0, 1.8
2022/12/14 04:20:00, 0.0, 1.6
2022/12/14 04:30:00, 0.0, 1.0
2022/12/14 04:40:00, 0.0, 0.9
2022/12/14 04:50:00, 0.0, 1.2
2022/12/14 05:00:00, 0.0, 0.7
2022/12/14 05:10:00, 0.0, 0.5
2022/12/14 05:20:00, 0.0, 0.4
2022/12/14 05:30:00, 0.0, 0.1
2022/12/14 05:40:00, 0.0, 0.6
2022/12/14 05:50:00, 0.0, 0.7
2022/12/14 06:00:00, 0.0, 0.3
2022/12/14 06:10:00, 0.0, 0.3
2022/12/14 06:20:00, 0.0, 0.3
2022/12/14 06:30:00, 0.0, 0.0
2022/12/14 06:40:00, 0.0, 0.0
2022/12/14 06:50:00, 0.0,-0.1
2022/12/14 07:00:00, 0.0, 0.0
2022/12/14 07:10:00, 0.0,-0.3
2022/12/14 07:20:00, 0.0,-0.8
2022/12/14 07:30:00, 0.0,-0.7
2022/12/14 07:40:00, 0.0,-1.2
2022/12/14 07:50:00, 0.1,-1.0
2022/12/14 08:00:00, 0.2,-1.0
2022/12/14 08:10:00, 0.4,-1.2
2022/12/14 08:20:00, 0.5,-0.9
2022/12/14 08:30:00, 0.5,-0.9
2022/12/14 08:40:00, 0.5,-1.1
2022/12/14 08:50:00, 0.8,-1.4
2022/12/14 09:00:00, 1.0,-1.6
2022/12/14 09:10:00, 1.3,-1.4
2022/12/14 09:20:00, 1.5,-1.7
2022/12/14 09:30:00, 1.5,-1.6
2022/12/14 09:40:00, 1.7,-1.9
2022/12/14 09:50:00, 1.9,-1.7
2022/12/14 10:00:00, 2.0,-1.1
2022/12/14 10:10:00, 1.9,-1.9
2022/12/14 10:20:00, 2.3,-1.7
2022/12/14 10:30:00, 2.4,-1.7
2022/12/14 10:40:00, 2.6,-1.9
2022/12/14 10:50:00, 2.8,-1.7
2022/12/14 11:00:00, 2.7,-0.8
2022/12/14 11:10:00, 2.8,-1.6
2022/12/14 11:20:00, 2.8,-1.7
2022/12/14 11:30:00, 3.0,-2.6
2022/12/14 11:40:00, 3.1,-1.9
2022/12/14 11:50:00, 3.1,-2.0
2022/12/14 12:00:00, 3.2,-1.5
2022/12/14 12:10:00, 3.2,-1.4
2022/12/14 12:20:00, 3.3,-1.1
2022/12/14 12:30:00, 3.2,-1.0
2022/12/14 12:40:00, 3.3,-1.0
2022/12/14 12:50:00, 3.4,-1.6
2022/12/14 13:00:00, 3.6,-1.6
2022/12/14 13:10:00, 3.6,-1.6
2022/12/14 13:20:00, 3.4,-1.6
2022/12/14 13:30:00, 3.4,-1.9
2022/12/14 13:40:00, 3.4,-1.7
2022/12/14 13:50:00, 3.6,-2.0
2022/12/14 14:00:00, 4.0,-1.6
2022/12/14 14:10:00, 3.9,-2.1
2022/12/14 14:20:00, 3.9,-1.9
2022/12/14 14:30:00, 4.1,-1.7
2022/12/14 14:40:00, 4.2,-2.0
2022/12/14 14:50:00, 4.2,-2.0
2022/12/14 15:00:00, 4.2,-2.1
2022/12/14 15:10:00, 4.5,-2.1
2022/12/14 15:20:00, 4.6,-3.0
2022/12/14 15:30:00, 4.7,-2.8
2022/12/14 15:40:00, 4.7,-3.0
2022/12/14 15:50:00, 4.8,-3.1
2022/12/14 16:00:00, 4.6,-3.1
2022/12/14 16:10:00, 4.6,-3.3
2022/12/14 16:20:00, 4.5,-3.3
2022/12/14 16:30:00, 4.4,-3.7
2022/12/14 16:40:00, 4.4,-3.4
2022/12/14 16:50:00, 4.4,-3.3
2022/12/14 17:00:00, 4.3,-3.6
2022/12/14 17:10:00, 4.2,-3.7
2022/12/14 17:20:00, 4.2,-3.8
2022/12/14 17:30:00, 4.1,-4.0
2022/12/14 17:40:00, 4.0,-3.5
2022/12/14 17:50:00, 3.9,-4.0
2022/12/14 18:00:00, 3.8,-4.2
2022/12/14 18:10:00, 3.8,-4.1
2022/12/14 18:20:00, 3.7,-3.9
2022/12/14 18:30:00, 3.7,-3.8
2022/12/14 18:40:00, 3.6,-4.6
2022/12/14 18:50:00, 3.5,-4.1
2022/12/14 19:00:00, 3.5,-4.1
2022/12/14 19:10:00, 3.5,-3.8
2022/12/14 19:20:00, 3.4,-3.9
2022/12/14 19:30:00, 3.4,-4.0
2022/12/14 19:40:00, 3.4,-4.0
2022/12/14 19:50:00, 3.3,-4.1
2022/12/14 20:00:00, 3.3,-3.9
2022/12/14 20:10:00, 3.2,-3.5
2022/12/14 20:20:00, 3.1,-3.9
2022/12/14 20:30:00, 3.1,-3.7
2022/12/14 20:40:00, 3.1,-3.7
2022/12/14 20:50:00, 3.0,-4.1
2022/12/14 21:00:00, 2.9,-4.0
2022/12/14 21:10:00, 2.8,-4.0
2022/12/14 21:20:00, 2.7,-3.9
2022/12/14 21:30:00, 2.6,-3.6
2022/12/14 21:40:00, 2.6,-3.7
2022/12/14 21:50:00, 2.6,-3.5
2022/12/14 22:00:00, 2.5,-3.8
2022/12/14 22:10:00, 2.4,-3.7
2022/12/14 22:20:00, 2.4,-3.6
2022/12/14 22:30:00, 2.4,-3.8
2022/12/14 22:40:00, 2.4,-3.3
2022/12/14 22:50:00, 2.3,-3.9
2022/12/14 23:00:00, 2.3,-3.4
2022/12/14 23:10:00, 2.2,-3.5
2022/12/14 23:20:00, 2.1,-3.5
2022/12/14 23:30:00, 2.0,-3.3
2022/12/14 23:40:00, 2.0,-3.3
2022/12/14 23:50:00, 1.9,-3.7
